sat.trackr.live / text

‹ back to catalog

STARLINK-32744

NORAD 62509 · 2025-003Y

PAYLOAD ACTIVE UNKNOWN

§ Identity

Operator
Country
US
Launch date
2025-01-06
Launch site
AFETR
Launch vehicle
Mass (kg)
RCS (m²)

Purposes: comms

External: N2YO · Heavens-Above · Gunter

§ Orbital elements

Epoch: 2026-09-21T16:32:42.394848Z

Period
94.27 min
Inclination
43.0008°
Eccentricity
0.0000558
Mean motion
15.27592635 rev/d
Perigee alt
482.6 km
Apogee alt
483.4 km
Semi-major
6,861.1 km
B*
3.2514e-4
RAAN
262.3754°
Arg perigee
312.4940°
Mean anomaly
47.5865°
Rev number
9,652

§ Raw data

STARLINK-327441 62509U 25003Y   26264.68937957  .00008699  00000+0  32514-3 0  99952 62509  43.0008 262.3754 0000558 312.4940  47.5865 15.27592635 96521

JSON: /api/v1/satellites/62509 · /tle

For live sub-satellite position, see the globe view (requires WebGL).

§ Visibility from observer

Set your observer location to see the next 7 days of passes ≥ 10°. The values pass through the URL so the page stays shareable.

No JS? Fill the form by hand. The geolocation button needs JavaScript.